Location: Vinland
(47.7731°N, 122.6974°W)
Time: 01:19:11
(UTC+00:00)

Transit 4A - Pass Details

Date: 31 March 2023
Orbit: 864 x 979 km, 66.8° (Epoch: 29 May)

Event Time Altitude Azimuth Distance (km) Brightness Sun altitude
Rises 11:53:25 0° 167° (SSE) 3,432 10.7 -19.5°
Reaches altitude 10° 11:56:28 10° 152° (SSE) 2,506 10.1 -19.1°
Maximum altitude 12:00:35 20° 106° (ESE) 1,891 10.0 -18.5°
Drops below altitude 10° 12:04:46 10° 60° (ENE) 2,552 11.5 -17.9°
Sets 12:07:53 0° 45° (NE) 3,515 12.3 -17.4°
